Location: Pian di Sc�
(43.6333°N, 11.5500°E)
Time: 12:02:01
(UTC+00:00)

deb Chang Zheng 4 - Pass Details

Date: 07 August 2020
Orbit: 604 x 625 km, 98.6° (Epoch: 24 September)

Event Time Altitude Azimuth Distance (km) Brightness Sun altitude
Rises 03:14:28 0° 17° (NNE) 2,910 7.9 -9.6°
Reaches altitude 10° 03:16:42 10° 22° (NNE) 2,002 7.1 -9.3°
Maximum altitude 03:21:00 58° 101° (E) 733 4.2 -8.6°
Drops below altitude 10° 03:25:16 10° 181° (S) 1,993 5.9 -8.0°
Sets 03:27:29 0° 185° (S) 2,896 6.6 -7.6°
